Date String (YYYY-MM-DD hh:mm:ss) UTC,Instrument flags,Ambient pressure (hPa),Sample flow (lpm),Bypass flow (lpm),Sample temperature (°C),Ambient temperature (°C),ASC tube jacket temperature (°C),LED temperature (°C),Box temperature (°C),Sample RH (%),Span deviation,Mass concentration (μg/m³),Mass concentration (μg/m³),Mass concentration (μg/m³)
DateTimeUTC,F1_M11,P_M11,Q1_M11,Q2_M11,T1_M11,T2_M11,T3_M11,T4_M11,T5_M11,U1_M11,ZSPAN_M11,X0_M11,X2_M11,X1_M11
2022-10-21 14:00:00,,0821.1,5.01,0.00,28.7,27.2,00.0,37.6,30.6,07.9,0000.0,0008.79,0003.40,0002.65
2022-10-21 14:01:00,,0821.1,5.00,0.00,28.7,27.2,00.0,37.6,30.6,07.9,0000.0,0009.19,0003.43,0002.68
2022-10-21 14:02:00,,0821.1,5.00,0.00,28.7,27.2,00.0,37.6,30.6,07.9,0000.0,0008.92,0003.47,0002.70
2022-10-21 14:03:00,,0821.1,4.99,0.00,28.7,27.3,00.0,37.6,30.6,08.0,0000.0,0009.16,0003.48,0002.72
2022-10-21 14:04:00,,0821.2,5.01,0.00,28.7,27.3,00.0,37.6,30.6,07.9,0000.0,0009.22,0003.50,0002.75
2022-10-21 14:05:00,,0821.1,5.00,0.00,28.7,27.3,00.0,37.6,30.6,08.0,0000.0,0009.14,0003.51,0002.79
2022-10-21 14:06:00,,0821.1,5.00,0.00,28.7,27.3,00.0,37.6,30.6,07.9,0000.0,0009.11,0003.53,0002.81
2022-10-21 14:07:00,,0821.2,5.00,0.00,28.7,27.2,00.0,37.6,30.6,07.8,0000.0,0008.41,0003.48,0002.83
2022-10-21 14:08:00,,0821.2,5.00,0.00,28.7,27.2,00.0,37.6,30.6,07.6,0000.0,0007.95,0003.50,0002.87
2022-10-21 14:09:00,,0821.2,5.00,0.00,28.7,27.2,00.0,37.6,30.5,07.6,0000.0,0008.38,0003.53,0002.89
2022-10-21 14:10:00,,0821.2,5.00,0.00,28.7,27.2,00.0,37.6,30.6,07.7,0000.0,0008.38,0003.54,0002.92
2022-10-21 14:11:00,,0821.2,4.99,0.00,28.7,27.2,00.0,37.6,30.6,07.7,0000.0,0008.47,0003.54,0002.95
2022-10-21 14:12:00,,0821.2,5.00,0.00,28.7,27.2,00.0,37.6,30.6,07.8,0000.0,0008.33,0003.54,0002.97
2022-10-21 14:13:00,,0821.2,5.00,0.00,28.7,27.3,00.0,37.6,30.6,07.9,0000.0,0009.36,0003.56,0002.98
2022-10-21 14:14:00,,0821.2,5.01,0.00,28.7,27.4,00.0,37.6,30.6,07.9,0000.0,0010.12,0003.61,0003.00
2022-10-21 14:15:00,,0821.2,4.99,0.00,28.8,27.4,00.0,37.6,30.7,07.8,0000.0,0010.38,0003.60,0003.01
2022-10-21 14:16:00,,0821.2,4.99,0.00,28.8,27.5,00.0,37.6,30.7,07.8,0000.0,0010.41,0003.60,0003.01
2022-10-21 14:17:00,,0821.3,5.01,0.00,28.8,27.5,00.0,37.6,30.7,07.9,0000.0,0010.44,0003.59,0003.02
2022-10-21 14:18:00,,0821.3,4.99,0.00,28.8,27.6,00.0,37.6,30.7,07.9,0000.0,0011.07,0003.61,0003.03
2022-10-21 14:19:00,,0821.3,5.00,0.00,28.8,27.6,00.0,37.6,30.8,07.9,0000.0,0011.36,0003.62,0003.03
2022-10-21 14:20:00,,0821.3,5.01,0.00,28.9,27.6,00.0,37.6,30.8,07.8,0000.0,0011.24,0003.62,0003.08
2022-10-21 14:21:00,,0821.3,5.00,0.00,28.9,27.5,00.0,37.7,30.8,07.7,0000.0,0012.16,0003.64,0003.13
2022-10-21 14:22:00,,0821.3,4.99,0.00,28.9,27.4,00.0,37.7,30.7,07.6,0000.0,0011.96,0003.66,0003.15
2022-10-21 14:23:00,,0821.3,5.00,0.00,28.8,27.3,00.0,37.7,30.7,07.8,0000.0,0011.54,0003.68,0003.19
2022-10-21 14:24:00,,0821.4,5.01,0.00,28.8,27.3,00.0,37.7,30.7,07.7,0000.0,0010.70,0003.69,0003.23
2022-10-21 14:25:00,,0821.3,5.01,0.00,28.8,27.2,00.0,37.7,30.7,07.6,0000.0,0010.27,0003.70,0003.27
2022-10-21 14:26:00,,0821.4,4.99,0.00,28.8,27.2,00.0,37.7,30.7,07.6,0000.0,0010.35,0003.75,0003.30
2022-10-21 14:27:00,,0821.4,4.99,0.00,28.8,27.3,00.0,37.7,30.7,07.5,0000.0,0010.90,0003.80,0003.33
2022-10-21 14:28:00,,0821.4,5.01,0.00,28.9,27.3,00.0,37.7,30.7,07.6,0000.0,0011.96,0003.85,0003.36
2022-10-21 14:29:00,,0821.4,5.01,0.00,28.9,27.4,00.0,37.7,30.8,07.8,0000.0,0012.68,0003.96,0003.39
2022-10-21 14:30:00,,0821.4,5.00,0.00,28.9,27.5,00.0,37.7,30.8,07.7,0000.0,0012.98,0003.99,0003.42
2022-10-21 14:31:00,,0821.4,4.99,0.00,28.9,27.5,00.0,37.7,30.8,07.5,0000.0,0013.03,0004.00,0003.44
2022-10-21 14:32:00,,0821.4,4.99,0.00,28.9,27.6,00.0,37.7,30.8,07.4,0000.0,0012.05,0003.98,0003.44
2022-10-21 14:33:00,,0821.4,5.02,0.00,28.9,27.6,00.0,37.7,30.8,07.4,0000.0,0012.32,0004.00,0003.45
2022-10-21 14:34:00,,0821.4,5.00,0.00,28.9,27.6,00.0,37.7,30.9,07.4,0000.0,0012.19,0003.99,0003.45
2022-10-21 14:35:00,,0821.4,4.99,0.00,29.0,27.7,00.0,37.7,30.9,07.4,0000.0,0011.91,0004.00,0003.46
2022-10-21 14:36:00,,0821.3,5.01,0.00,29.0,27.7,00.0,37.8,30.9,07.4,0000.0,0011.45,0003.98,0003.47
2022-10-21 14:37:00,,0821.4,4.98,0.00,29.0,27.7,00.0,37.8,30.9,07.4,0000.0,0011.31,0003.97,0003.49
2022-10-21 14:38:00,,0821.4,5.00,0.00,29.0,27.7,00.0,37.8,30.9,07.4,0000.0,0011.03,0003.96,0003.49
2022-10-21 14:39:00,,0821.4,5.00,0.00,29.0,27.7,00.0,37.8,30.9,07.5,0000.0,0010.57,0003.95,0003.50
2022-10-21 14:40:00,,0821.4,5.01,0.00,29.0,27.7,00.0,37.8,30.9,07.5,0000.0,0009.45,0003.86,0003.51
2022-10-21 14:41:00,,0821.4,5.00,0.00,29.0,27.7,00.0,37.8,31.0,07.5,0000.0,0008.81,0003.82,0003.52
2022-10-21 14:42:00,,0821.4,5.00,0.00,29.1,27.7,00.0,37.8,31.0,07.4,0000.0,0008.51,0003.86,0003.54
2022-10-21 14:43:00,,0821.5,5.00,0.00,29.1,27.8,00.0,37.8,31.0,07.4,0000.0,0008.52,0003.90,0003.58
2022-10-21 14:44:00,,0821.5,5.00,0.00,29.1,27.8,00.0,37.9,31.0,07.4,0000.0,0008.05,0003.95,0003.62
2022-10-21 14:45:00,,0821.6,5.00,0.00,29.1,27.8,00.0,37.9,31.0,07.8,0000.0,0008.30,0003.99,0003.64
2022-10-21 14:46:00,,0821.5,5.00,0.00,29.1,27.7,00.0,37.9,31.0,08.2,0000.0,0008.64,0004.01,0003.62
2022-10-21 14:47:00,,0821.4,5.01,0.00,29.1,27.7,00.0,37.9,31.0,07.9,0000.0,0008.76,0004.00,0003.60
2022-10-21 14:48:00,,0821.4,5.00,0.00,29.1,27.7,00.0,37.9,31.0,07.7,0000.0,0008.79,0004.04,0003.62
2022-10-21 14:49:00,,0821.4,5.00,0.00,29.1,27.7,00.0,37.9,31.0,07.7,0000.0,0009.10,0004.12,0003.69
2022-10-21 14:50:00,,0821.3,5.00,0.00,29.1,27.7,00.0,37.9,31.0,07.7,0000.0,0009.37,0004.24,0003.77
2022-10-21 14:51:00,,0821.1,5.01,0.00,29.1,27.7,00.0,37.9,31.0,07.6,0000.0,0009.46,0004.38,0003.87
2022-10-21 14:52:00,,0821.2,5.00,0.00,29.1,27.6,00.0,37.9,30.9,07.3,0000.0,0009.99,0004.57,0004.00
2022-10-21 14:53:00,,0821.4,4.99,0.00,29.1,27.6,00.0,37.9,30.9,07.5,0000.0,0011.04,0004.69,0004.09
2022-10-21 14:54:00,,0821.4,4.99,0.00,29.1,27.6,00.0,37.9,30.9,07.5,0000.0,0011.29,0004.77,0004.12
2022-10-21 14:55:00,,0821.4,5.02,0.00,29.1,27.6,00.0,37.9,30.9,07.5,0000.0,0011.76,0004.91,0004.18
2022-10-21 14:56:00,,0821.3,5.00,0.00,29.1,27.6,00.0,37.9,30.9,07.4,0000.0,0011.90,0005.02,0004.29
2022-10-21 14:57:00,,0821.3,4.99,0.00,29.1,27.6,00.0,37.9,30.9,07.4,0000.0,0011.77,0005.15,0004.44
2022-10-21 14:58:00,,0821.4,5.02,0.00,29.1,27.5,00.0,37.9,30.9,07.5,0000.0,0011.71,0005.27,0004.57
2022-10-21 14:59:00,,0821.3,4.99,0.00,29.1,27.5,00.0,37.9,30.9,07.5,0000.0,0011.44,0005.34,0004.64
